Location: Kapla
(46.2483°N, 15.0094°E)
Time: 18:36:43
(UTC+00:00)

Cosmos 1500 - Pass Details

Date: 03 March 2021
Orbit: 499 x 517 km, 82.5° (Epoch: 14 April)

Event Time Altitude Azimuth Distance (km) Brightness Sun altitude
Rises 17:12:32 0° 153° (SSE) 2,580 6.5 -4.8°
Reaches altitude 10° 17:15:02 10° 135° (SE) 1,702 5.4 -5.3°
Maximum altitude 17:17:46 20° 88° (E) 1,222 4.5 -5.7°
Drops below altitude 10° 17:20:30 10° 41° (NE) 1,713 5.4 -6.2°
Sets 17:23:02 0° 24° (NNE) 2,604 6.5 -6.7°
